Content
SEND FEEDBACK

Daily
Averages
Monthly
Summary
United States of America

AUBURN, INDIANA


Home > North America > United States > Indiana
Elevation: 268 meters     Latitude: 41 20N     Longitude: 085 03W

WEATHER
 
SELECT A DAY
Number of Records: 153,154;   Date Range: 2/27/08 - 8/27/14
 
SHARE

PRINT THIS DATA

[ ← Previous Day ]
WEATHER ALMANAC - 3 JANUARY, 2013
[ Next Day → ]
[ °F ]   °C
Weather ElementAverageHighLow
Temperature-4.6 °C-1 °C (2:55 pm)-11 °C (12:35 am)
Dewpoint-9.5 °C-4 °C (5:35 pm)-15 °C (12:35 am)
Humidity68.9 %80 % (2:15 pm)58 % (5:15 am)
Barometer1021.3 hPa1023.4 hPa (8:35 pm)1020 hPa (4:55 am)
Wind Speed11.6 km/h18.5 km/h (3:35 pm)
Wind Gust29.6 km/h (2:55 pm)
Weather ElementAverage
Visibility14.5 km
Wind DirectionSW (230.4 °)

Weather ElementTotal
Precipitation---
Heating Degree Days24.3 (Base 18.3)
Averaged from 69 records on 3 January, 2013
WEATHER CONDITIONS BREAKOUT
WIND DIRECTION BREAKOUT
WEATHER BY HOUR - 3 JANUARY, 2013
[ °F ]   °C
Local TimeTemperatureDewpointHumidityBarometerVisibilityWind DirectionWind SpeedGust SpeedPrecipitationEventsConditions
12:35 AM-11 °C-15 °C73 %1021.3 hPa16.1 kmSouth (190°)5.6 km/hClear
12:55 AM-10 °C-15 °C67 %1021 hPa16.1 kmSouth (190°)9.3 km/hClear
1:15 AM-10 °C-15 °C67 %1021 hPa16.1 kmSouth (190°)7.4 km/hClear
1:35 AM-10 °C-15 °C67 %1021 hPa16.1 kmSouth (190°)7.4 km/hClear
1:55 AM-11 °C-15 °C73 %1020.7 hPa16.1 kmSouth (180°)5.6 km/hClear
2:15 AM-10 °C-15 °C67 %1021 hPa16.1 kmCalmClear
2:35 AM-10 °C-15 °C67 %1021 hPa16.1 kmSW (230°)5.6 km/hClear
2:55 AM-10 °C-15 °C67 %1021 hPa16.1 kmSSW (210°)7.4 km/hClear
3:15 AM-10 °C-15 °C67 %1021 hPa16.1 kmSSW (210°)5.6 km/hClear
3:35 AM-10 °C-15 °C67 %1021 hPa16.1 kmSW (220°)5.6 km/hClear
3:55 AM-10 °C-15 °C67 %1020.7 hPa16.1 kmSSW (210°)7.4 km/hClear
4:15 AM-10 °C-15 °C67 %1020.7 hPa16.1 kmSSW (210°)7.4 km/hScattered Clouds
4:35 AM-10 °C-15 °C67 %1020.3 hPa16.1 kmSSW (200°)9.3 km/hMostly Cloudy
4:55 AM-9 °C-15 °C62 %1020 hPa16.1 kmSSW (210°)9.3 km/hOvercast
5:15 AM-8 °C-15 °C58 %1020 hPa16.1 kmSSW (210°)9.3 km/hOvercast
5:35 AM-8 °C-14 °C63 %1020 hPa16.1 kmSSW (210°)11.1 km/hOvercast
5:55 AM-8 °C-14 °C63 %1020 hPa16.1 kmSSW (210°)13 km/hOvercast
6:15 AM-7 °C-14 °C58 %1020 hPa16.1 kmSW (220°)14.8 km/hOvercast
6:35 AM-7 °C-13 °C63 %1020 hPa16.1 kmSW (220°)11.1 km/hOvercast
6:55 AM-7 °C-13 °C63 %1020 hPa16.1 kmSW (220°)13 km/hOvercast
7:15 AM-7 °C-13 °C63 %1020 hPa16.1 kmSW (220°)11.1 km/hOvercast
7:35 AM-7 °C-13 °C63 %1020 hPa16.1 kmSW (230°)11.1 km/hOvercast
7:55 AM-7 °C-12 °C68 %1020.3 hPa16.1 kmSW (230°)9.3 km/hOvercast
8:15 AM-7 °C-12 °C68 %1020 hPa16.1 kmSSW (210°)11.1 km/hOvercast
8:35 AM-7 °C-12 °C68 %1020.3 hPa16.1 kmSW (230°)9.3 km/hMostly Cloudy
8:55 AM-6 °C-12 °C63 %1020.3 hPa16.1 kmWSW (240°)11.1 km/hOvercast
9:15 AM-6 °C-11 °C68 %1020.3 hPa16.1 kmSW (230°)9.3 km/hOvercast
9:35 AM-5 °C-11 °C63 %1020.7 hPa16.1 kmWSW (250°)13 km/hOvercast
9:55 AM-5 °C-11 °C63 %1020.7 hPa16.1 kmWSW (240°)11.1 km/hOvercast
10:15 AM-5 °C-10 °C68 %1020.7 hPa16.1 kmWest (260°)13 km/hOvercast
10:35 AM-5 °C-9 °C74 %1021 hPa16.1 kmWSW (250°)11.1 km/hOvercast
10:55 AM-4 °C-9 °C69 %1021 hPa16.1 kmSW (230°)13 km/hOvercast
11:15 AM-3 °C-8 °C69 %1021 hPa16.1 kmSW (230°)14.8 km/hOvercast
11:35 AM-3 °C-8 °C69 %1021 hPa11.3 kmWSW (240°)16.7 km/hOvercast
11:55 AM-3 °C-7 °C74 %1021 hPa11.3 kmWSW (250°)14.8 km/hOvercast
12:15 PM-3 °C-7 °C74 %1021 hPa11.3 kmWSW (240°)13 km/hOvercast
12:35 PM-3 °C-7 °C74 %1020.7 hPa11.3 kmWSW (240°)13 km/hOvercast
12:55 PM-2 °C-6 °C74 %1020.3 hPa8 kmSW (230°)11.1 km/h25.9 km/hHaze
1:15 PM-2 °C-6 °C74 %1020 hPa8 kmWSW (240°)14.8 km/hHaze
1:35 PM-2 °C-6 °C74 %1020 hPa11.3 kmWSW (240°)13 km/hOvercast
1:55 PM-2 °C-6 °C74 %1020 hPa11.3 kmWSW (240°)13 km/hOvercast
2:15 PM-2 °C-5 °C80 %1020 hPa8 kmWSW (240°)14.8 km/hHaze
2:55 PM-1 °C-5 °C75 %1020.3 hPa11.3 kmWSW (240°)11.1 km/h29.6 km/hOvercast
3:15 PM-1 °C-5 °C75 %1020.7 hPa11.3 kmWSW (240°)16.7 km/hOvercast
3:35 PM-1 °C-5 °C75 %1020.7 hPa11.3 kmSW (230°)18.5 km/hOvercast
3:55 PM-1 °C-5 °C75 %1021 hPa11.3 kmWSW (240°)11.1 km/hOvercast
4:15 PM-1 °C-5 °C75 %1021.3 hPa11.3 kmWSW (250°)9.3 km/hOvercast
4:35 PM-1 °C-5 °C75 %1021.7 hPa8 kmWSW (250°)14.8 km/hHaze
4:55 PM-1 °C-5 °C75 %1021.7 hPa8 kmWSW (250°)14.8 km/hSnowLight Snow
5:35 PM-1 °C-4 °C80 %1022 hPa6.4 kmWSW (240°)13 km/hSnowLight Snow
5:55 PM-2 °C-5 °C80 %1022 hPa11.3 kmWSW (240°)13 km/hSnowLight Snow
6:15 PM-1 °C-5 °C75 %1022.4 hPa16.1 kmWSW (250°)11.1 km/hOvercast
6:35 PM-1 °C-5 °C75 %1022.4 hPa16.1 kmWSW (250°)13 km/hOvercast
6:55 PM-1 °C-5 °C75 %1022.7 hPa16.1 kmWest (260°)13 km/hOvercast
7:15 PM-1 °C-6 °C69 %1022.7 hPa16.1 kmWest (260°)16.7 km/hOvercast
7:35 PM-1 °C-6 °C69 %1023 hPa16.1 kmWest (270°)16.7 km/hOvercast
7:55 PM-1 °C-7 °C64 %1023 hPa16.1 kmWest (260°)13 km/hOvercast
8:15 PM-1 °C-6 °C69 %1023 hPa16.1 kmWest (270°)13 km/hOvercast
8:35 PM-1 °C-7 °C64 %1023.4 hPa16.1 kmWest (260°)14.8 km/hOvercast
8:55 PM-1 °C-7 °C64 %1023.4 hPa16.1 kmWSW (240°)11.1 km/hOvercast
9:15 PM-1 °C-7 °C64 %1023.4 hPa16.1 kmWSW (250°)11.1 km/hOvercast
9:35 PM-1 °C-7 °C64 %1023 hPa16.1 kmWSW (250°)16.7 km/hOvercast
9:55 PM-1 °C-7 °C64 %1023.4 hPa16.1 kmWSW (250°)14.8 km/hOvercast
10:15 PM-1 °C-7 °C64 %1023.4 hPa16.1 kmWSW (250°)13 km/hOvercast
10:35 PM-2 °C-7 °C69 %1023.4 hPa16.1 kmWest (260°)11.1 km/hOvercast
10:55 PM-2 °C-7 °C69 %1023.4 hPa16.1 kmWSW (250°)11.1 km/hOvercast
11:15 PM-2 °C-7 °C69 %1023.4 hPa16.1 kmWSW (250°)16.7 km/hOvercast
11:35 PM-2 °C-7 °C69 %1023.4 hPa16.1 kmWest (260°)13 km/hOvercast
11:55 PM-2 °C-7 °C69 %1023.4 hPa16.1 kmWSW (240°)9.3 km/hOvercast
Hourly data recorded from KGWB, located 0 kilometers away from Auburn, Indiana







STORIES FROM OUR PARTNERS